Regional Weather Roundup
Issued by NWS

Home | Current Version | Previous Version | Text Only | Print | Product List | Glossary On
Versions: 1 2 3 4 5 6 7 8 9 10 11 12 13 14 15 16 17 18 19 20 21 22 23 24 25 26 27 28 29 30 31 32 33 34 35 36 37 38 39 40 41 42 43 44 45 46 47 48 49 50
000
ASUS45 KCYS 300410
RWRWY

WYOMING REGIONAL WEATHER ROUNDUP
NATIONAL WEATHER SERVICE CHEYENNE WY
1000 PM MDT WED MAR 29 2017

NOTE:  "FAIR" INDICATES FEW OR NO CLOUDS BELOW 12,000 FEET
WITH NO SIGNIFICANT WEATHER AND/OR OBSTRUCTIONS TO VISIBILITY.

WYZ001-300500-
YELLOWSTONE NATIONAL PARK

CITY           SKY/WX    TMP DP  RH WIND       PRES   REMARKS
LK YELLOWSTONE   N/A     31  31 100 CALM      30.04F
W YELLOWSTONE  NOT AVBL

$$
WYZ002>013-054>058-071-098>099-300500-
NORTHERN WYOMING

CITY           SKY/WX    TMP DP  RH WIND       PRES   REMARKS
JACKSON        CLOUDY    43  34  70 S6        30.02F
CODY           MOCLDY    51  29  42 W16G23    29.91S
GREYBULL       FAIR      47  30  51 E7        29.86S
WORLAND        FAIR      45  36  70 VRB3      29.86S
SHERIDAN       FAIR      38  33  82 CALM      29.85S
BUFFALO        FAIR      42  30  62 W8        29.87F
GILLETTE         N/A     41  30  65 S9        29.86F
HULETT         FAIR      43  32  65 SE9       29.88F
NEWCASTLE      FAIR      43  34  70 SE8       29.91F

$$
WYZ014>020-022>026-101>103-300500-
CENTRAL WYOMING

CITY           SKY/WX    TMP DP  RH WIND       PRES   REMARKS
BIG PINEY      FAIR      37  31  78 NE10      30.05F WCI  30
PINEDALE       CLOUDY    36  30  80 NW5       30.06S WCI  32
DUBOIS         CLOUDY    37  28  70 NW8       30.00S WCI  31
LANDER         FAIR      47  32  56 CALM      29.90S
RIVERTON       FAIR      50  30  46 NW22      29.88F
CASPER         FAIR      39  28  64 W8        29.89F WCI  33
DOUGLAS        FAIR      38  30  73 SE10      29.91S WCI  31

$$
WYZ021-027>030-104>119-300500-
SOUTHERN WYOMING

CITY           SKY/WX    TMP DP  RH WIND       PRES   REMARKS
EVANSTON       CLOUDY    40  25  55 W10       30.10F WCI  33
KEMMERER         N/A     36  30  80 W7        30.08F WCI  30
ROCK SPRINGS   FAIR      41  30  65 W13       30.05R
DIXON            N/A     33  27  79 CALM      30.08R
RAWLINS        FAIR      43  27  53 W17G26    29.98F
SARATOGA       FAIR      36  28  75 SW3       30.03S
LARAMIE        FAIR      35  23  61 W3        29.98F
CHEYENNE       FAIR      38  27  64 VRB6      29.97S WCI  33
TORRINGTON     FAIR      41  37  86 SE6       29.94R
PINE BLUFFS    FAIR      37  34  87 S7        29.97S WCI  32

$$



USA.gov is the U.S. government's official web portal to all federal, state and local government web resources and services.